{"data":{"norad_id":53992,"epoch":"2026-05-25T04:53:49.939008Z","epoch_age_seconds":47450,"freshness":"FRESH","line1":"1 53992U 22125AE  26145.20405022 -.00000712  00000+0 -26659-4 0  9996","line2":"2 53992  53.2139 230.6323 0001260  78.3516 281.7617 15.08826209201007","mean_motion":15.08826209,"eccentricity":0.000126,"inclination_deg":53.2139,"raan_deg":230.6323,"arg_perigee_deg":78.3516,"mean_anomaly_deg":281.7617,"bstar":-2.6659e-5,"rev_number":20100,"period_min":95.438426997791,"perigee_km":538.91388461461,"apogee_km":540.65720109541,"semimajor_km":6917.922542855,"source":"CELESTRAK","updated_at":"2026-05-25T13:38:17.621988Z"}}